User: anonymous   Login
Location: Anjeux
(47.8815°N, 6.2076°E)
Time: 17:09:20
(UTC+00:00)
Language:

NOSS 3-4 (C) - Orbit

View from above orbital plane
View from above orbital plane
View from above satellite
View from above satellite

Ground track
Ground track

The orbit data is extracted from the following two-line orbital elements,

1 31708U 07027C   21117.99146784 0.00000000  00000-0  00000-0 0    08
2 31708  63.3937  84.2721 0311872  19.5513 340.4823 13.40818238    04
Epoch (UTC): 27 April 2021 23:47:42
Eccentricity: 0.0311872
inclination: 63.3937°
perigee height: 873 km
apogee height: 1339 km
right ascension of ascending node: 84.2721°
argument of perigee: 19.5513°
revolutions per day: 13.40818238
mean anomaly at epoch: 340.4823°
orbit number at epoch: 0

The dashed part of the orbit path shows where the satellite is in the earth's shadow,  

DLR